Location: Newark
(44.2003°N, 3.2583°E)
Time: 04:34:18
(UTC+00:00)

Explorer 7 - Pass Details

Date: 27 October 2019
Orbit: 485 x 680 km, 50.3° (Epoch: 21 November)

Event Time Altitude Azimuth Distance (km) Brightness Sun altitude
Rises 15:35:43 0° 284° (WNW) 2,575 11.0 10.5°
Reaches altitude 10° 15:38:45 10° 258° (WSW) 1,713 11.2 10.0°
Maximum altitude 15:40:45 14° 227° (SW) 1,506 11.0 9.7°
Drops below altitude 10° 15:42:48 10° 195° (SSW) 1,752 10.2 9.4°
Sets 15:45:58 0° 169° (S) 2,679 10.6 8.9°
